Weather History for Minneapolis Flying Cloud, MN

Change the Weather History Date:

Monday, March 17, 2014

  Actual Average Record
Temperature  
Mean Temperature 30 °F -  
Max Temperature 37 °F 37 °F 81 °F (2012)
Min Temperature 24 °F 21 °F 9 °F (2013)
Degree Days  
Heating Degree Days 34    
Moisture  
Dew Point 22 °F    
Average Humidity 71    
Maximum Humidity 80    
Minimum Humidity 60    
Precipitation  
Precipitation 0.03 in - - ()
Sea Level Pressure  
Sea Level Pressure 29.69 in    
Wind  
Wind Speed 14 mph (SSE)    
Max Wind Speed 20 mph    
Max Gust Speed 26 mph    
Visibility 9 miles    
Events Rain , Snow    
Averages and records for this station are not official NWS values.
T = Trace of Precipitation, MM = Missing Value Source: NWS Daily Summary

Daily Weather History Graph

Daily Weather History Graph

Search for Another Location

Airport:

Trip Planner

Search our weather history database for the weather conditions in past years. The results will help you decide how hot, cold, wet, or windy it might be!

Date:

Astronomy

Mar. 17, 2014 Rise Set
Actual Time 7:22 AM CDT 7:22 PM CDT
Civil Twilight 6:53 AM CDT 7:51 PM CDT
Nautical Twilight 6:19 AM CDT 8:25 PM CDT
Astronomical Twilight 5:44 AM CDT 9:00 PM CDT
Moon 8:44 PM CDT (3/17) 7:35 AM CDT (3/17)
Length of Visible Light 12h 58m
Length of Day
12h 00m
Full, 99% of the Moon is Illuminated
Mar 17
Full
Mar 23
Last Quarter
Mar 30
New
Apr 7
First Quarter
Apr 15
Full

Hourly Weather History & Observations

Time (CDT) Temp. Windchill Dew Point Humidity Pressure Visibility Wind Dir Wind Speed Gust Speed Precip Events Conditions
12:53 AM 24.1 °F 13.1 °F 15.1 °F 69% 29.99 in 10.0 mi South 11.5 mph - N/A   Overcast
1:53 AM 24.1 °F 12.0 °F 16.0 °F 71% 29.94 in 10.0 mi South 13.8 mph - N/A   Overcast
2:53 AM 25.0 °F 13.6 °F 16.0 °F 69% 29.90 in 10.0 mi South 12.7 mph - N/A   Overcast
3:53 AM 25.0 °F 13.6 °F 16.0 °F 69% 29.87 in 10.0 mi South 12.7 mph - N/A   Overcast
4:53 AM 25.0 °F 12.6 °F 16.0 °F 69% 29.82 in 10.0 mi South 15.0 mph - N/A   Overcast
5:53 AM 25.0 °F 12.6 °F 18.0 °F 75% 29.80 in 10.0 mi South 15.0 mph - N/A   Overcast
6:53 AM 26.1 °F 14.5 °F 18.0 °F 71% 29.78 in 10.0 mi South 13.8 mph - N/A   Overcast
7:53 AM 26.1 °F 13.1 °F 19.0 °F 75% 29.75 in 10.0 mi South 17.3 mph 24.2 mph 0.00 in   Overcast
8:20 AM 26.6 °F 13.1 °F 19.4 °F 74% 29.69 in 6.0 mi South 19.6 mph 25.3 mph 0.00 in Rain Light Freezing Rain
8:37 AM 26.6 °F 15.2 °F 21.2 °F 80% 29.68 in 5.0 mi South 13.8 mph 25.3 mph 0.01 in Snow Light Snow
8:53 AM 27.0 °F 13.5 °F 21.0 °F 78% 29.71 in 6.0 mi South 19.6 mph 26.5 mph 0.02 in   Overcast
9:03 AM 26.6 °F 13.4 °F 21.2 °F 80% 29.66 in 6.0 mi South 18.4 mph 24.2 mph 0.01 in Rain Light Freezing Rain
9:18 AM 26.6 °F 14.3 °F 21.2 °F 80% 29.65 in 8.0 mi South 16.1 mph - 0.01 in   Overcast
9:53 AM 27.0 °F 14.7 °F 21.0 °F 78% 29.68 in 10.0 mi South 16.1 mph 26.5 mph 0.01 in   Overcast
10:53 AM 28.9 °F 18.6 °F 23.0 °F 78% 29.68 in 10.0 mi South 12.7 mph - 0.00 in   Overcast
11:53 AM 32.0 °F 22.1 °F 23.0 °F 69% 29.65 in 10.0 mi South 13.8 mph - 0.00 in   Mostly Cloudy
12:53 PM 34.0 °F 23.4 °F 24.1 °F 67% 29.64 in 10.0 mi South 17.3 mph - N/A   Overcast
1:53 PM 35.1 °F 24.1 °F 24.1 °F 64% 29.62 in 10.0 mi South 19.6 mph 24.2 mph N/A   Partly Cloudy
2:53 PM 36.0 °F 27.1 °F 25.0 °F 64% 29.60 in 10.0 mi South 13.8 mph - N/A   Scattered Clouds
3:16 PM 37.4 °F 29.3 °F 24.8 °F 60% 29.56 in 10.0 mi SSE 12.7 mph - N/A   Mostly Cloudy
3:53 PM 37.0 °F 28.9 °F 26.1 °F 65% 29.59 in 10.0 mi SE 12.7 mph 19.6 mph N/A   Overcast
4:16 PM 37.4 °F 28.9 °F 26.6 °F 65% 29.56 in 10.0 mi SE 13.8 mph - N/A   Mostly Cloudy
4:53 PM 37.9 °F 30.5 °F 27.0 °F 65% 29.60 in 10.0 mi SSE 11.5 mph - N/A   Mostly Cloudy
5:53 PM 36.0 °F 27.5 °F 27.0 °F 70% 29.58 in 10.0 mi ESE 12.7 mph - N/A   Clear
6:53 PM 35.1 °F 27.4 °F 27.0 °F 72% 29.61 in 10.0 mi ESE 10.4 mph - N/A   Clear
7:53 PM 34.0 °F 25.5 °F 26.1 °F 73% 29.62 in 10.0 mi ESE 11.5 mph - N/A   Clear
8:53 PM 34.0 °F 26.6 °F 25.0 °F 70% 29.63 in 10.0 mi East 9.2 mph - N/A   Clear
9:53 PM 33.1 °F 25.5 °F 25.0 °F 72% 29.63 in 10.0 mi East 9.2 mph - N/A   Clear
10:53 PM 34.0 °F 27.2 °F 24.1 °F 67% 29.64 in 10.0 mi East 8.1 mph - N/A   Clear
11:53 PM 33.1 °F 26.1 °F 23.0 °F 66% 29.64 in 10.0 mi East 8.1 mph - N/A   Clear